Flag for Canada

Past Weather in Campbellton, New Brunswick, Canada — Yesterday and Last 2 Weeks

Now
72 °F

Passing clouds.


Feels Like: 74 °F
Forecast: N/A
Wind: 5 mph from North

Location: Bathurst Airport

Current Time: Jul 7, 2020 at 7:40:30 pm

Latest Report: Jul 7, 2020 at 6:00 pm


Visibility: 9 mi

Pressure: 30.08 "Hg

Humidity: 73%

Dew Point: 63 °F

Location of CampbelltonLocation

Past Weather in Campbellton — Graph

°F

Campbellton Temperature Yesterday

Maximum temperature yesterday: 66 °F (at 2:00 pm)
Minimum temperature yesterday: 59 °F (at 12:00 am)
Average temperature yesterday: 60 °F

High & Low Weather Summary for the Past Weeks

 TemperatureHumidityPressure
High91 °F (Jun 23, 2:00 pm)100% (Jun 23, 5:00 am)30.21 "Hg (Jun 23, 5:00 am)
Low54 °F (Jul 3, 6:37 am)32% (Jun 25, 2:00 pm)29.63 "Hg (Jun 24, 6:00 pm)
Average65 °F84%29.92 "Hg
* Reported Jun 22 6:00 pm — Jul 7 6:00 pm, Campbellton. Weather by CustomWeather, © 2020

Note: Actual official high and low records may vary slightly from our data, if they occured in-between our weather recording intervals... More about our weather records

Campbellton Weather History for the Previous 24 Hours

Scroll right to see more
 ConditionsComfort  
Time TempWeatherWind HumidityBarometerVisibility
6:00 pm
Tue, Jul 7
72 °FPassing clouds.5 mph73%30.08 "Hg9 mi
5:00 pm72 °FPassing clouds.7 mph69%30.09 "Hg9 mi
4:00 pm70 °FPassing clouds.8 mph69%30.11 "Hg9 mi
3:00 pm72 °FBroken clouds.7 mph69%30.12 "Hg9 mi
2:00 pm72 °FPartly sunny.9 mph65%30.13 "Hg9 mi
1:00 pm70 °FPassing clouds.6 mph69%30.16 "Hg9 mi
12:00 pm68 °FPartly sunny.6 mph69%30.18 "Hg9 mi
10:00 am63 °FOvercast.2 mph83%30.19 "Hg9 mi
9:00 am61 °FOvercast.3 mph83%30.20 "Hg9 mi
8:11 am61 °FPartly sunny.2 mph88%30.21 "Hg9 mi
7:41 am59 °FBroken clouds.No wind94%30.21 "Hg9 mi
7:00 am59 °FOvercast.No wind94%30.21 "Hg9 mi
6:00 am57 °FOvercast.2 mph100%30.19 "Hg9 mi
5:17 am57 °FOvercast.2 mph100%30.18 "Hg9 mi
4:00 am57 °FLow clouds.No wind100%30.18 "Hg9 mi
3:40 am57 °FOvercast.No wind100%30.18 "Hg9 mi
3:09 am57 °FMostly cloudy.2 mph100%30.17 "Hg9 mi
2:50 am57 °FMostly cloudy.2 mph100%30.18 "Hg9 mi
2:25 am57 °FMostly cloudy.2 mph94%30.18 "Hg9 mi
2:00 am57 °FMostly cloudy.2 mph94%30.18 "Hg9 mi
1:43 am57 °FMostly cloudy.No wind94%30.18 "Hg9 mi
1:00 am59 °FOvercast.2 mph94%30.19 "Hg9 mi
12:00 am59 °FOvercast.No wind94%30.19 "Hg9 mi
11:00 pm
Mon, Jul 6
59 °FOvercast.3 mph94%30.19 "Hg9 mi
10:32 pm59 °FOvercast.2 mph94%30.19 "Hg9 mi
9:59 pm59 °FOvercast.5 mph94%30.17 "Hg9 mi
9:00 pm59 °FMostly cloudy.6 mph94%30.16 "Hg9 mi
8:00 pm61 °FMostly cloudy.6 mph88%30.16 "Hg9 mi
7:29 pm61 °FMostly cloudy.9 mph88%30.16 "Hg9 mi
7:00 pm61 °FMostly cloudy.8 mph88%30.15 "Hg9 mi
Weather by CustomWeather, © 2020

See weather overview